Helicity
21 5 27 16 16 -44 -31 -10 -6 -15 -52 -13 23 72 45 78 47 61 54 30 35 24 32 44 44 51 41 44 53 51 38 25 -42 -46 -35 -21 -9 13 26 26 39 52 59 77
30 18 -1 1 3 6 5 11 16 -14 -38 6 33 38 -0 58 54 41 44 57 61 65 39 73 63 50 62 51 30 24 27 -6 -18 -21 -6 8 26 24 28 43 58 64 76 89
4 12 28 23 36 26 12 16 11 10 11 16 22 28 17 20 35 34 23 14 44 77 75 41 45 37 29 28 42 32 11 7 -0 2 22 39 60 51 49 60 92 75 95 112
4 -12 12 23 -0 -5 13 6 24 18 26 12 -2 8 26 21 44 55 26 48 34 38 43 52 47 36 32 25 12 7 -17 -25 -7 16 45 49 49 56 64 97 102 93 108 120
44 12 11 -0 -4 -8 24 -1 -6 11 4 14 36 14 62 -11 12 55 87 45 40 51 50 44 55 45 28 15 1 -10 -2 7 28 50 55 68 66 79 116 186 132 90 123 116
-1 23 2 -39 7 -4 18 10 31 31 31 16 35 -10 24 12 -18 16 5 43 33 30 53 51 43 36 36 36 26 40 49 51 69 71 85 93 99 128 135 177 177 130 105 127
51 -7 -19 -23 15 23 1 8 20 30 36 12 64 13 -41 -17 22 18 27 2 1 10 6 30 41 47 47 89 87 79 77 70 84 98 125 109 108 157 135 143 162 90 118 141
62 44 3 1 8 12 22 6 51 44 44 46 65 -9 13 34 31 32 18 20 20 12 6 -1 19 57 65 102 108 111 103 81 93 109 121 123 104 115 129 136 117 77 97 118
61 25 77 16 9 -2 54 45 79 82 79 61 47 40 12 28 25 17 21 21 30 14 19 13 6 26 60 92 104 119 106 78 64 115 109 115 138 138 146 123 91 76 103 171
91 65 56 75 36 42 41 78 51 88 79 58 69 34 40 51 43 46 54 76 48 54 40 32 32 39 29 65 88 108 91 88 63 98 123 147 130 113 141 143 114 128 192 225
85 121 115 88 70 55 82 44 61 78 105 80 61 52 66 9 35 36 34 27 62 44 32 38 50 40 50 66 70 81 101 101 83 98 109 120 100 126 136 169 169 191 218 258
77 116 100 83 91 23 -14 -5 20 6 58 100 108 58 45 31 34 29 26 23 21 14 15 19 34 63 86 82 85 81 82 97 106 98 111 118 201 257 268 220 228 261 245 160
150 135 113 97 85 86 82 26 14 5 9 28 31 48 47 61 29 25 18 32 31 41 47 44 57 67 71 80 83 90 98 116 135 136 195 238 238 199 166 283 282 298 276 108
131 93 71 51 30 41 41 44 55 42 11 7 43 16 22 23 2 17 47 48 38 35 36 38 57 57 70 81 88 90 138 200 195 186 195 241 288 432 420 419 293 302 184 80
84 84 51 29 17 26 10 -4 27 22 17 17 31 19 28 13 12 26 88 111 75 40 42 49 51 92 115 123 128 144 195 222 218 224 308 374 367 374 384 352 304 220 174 240
139 99 79 51 62 40 19 -2 2 16 8 6 8 -27 20 10 40 52 89 115 118 113 56 41 58 113 161 184 179 207 244 233 222 230 235 306 373 374 349 270 191 165 250 42
149 129 109 58 69 75 49 26 50 47 53 41 -10 -10 22 23 22 39 98 115 117 116 102 92 97 120 179 215 211 221 225 246 277 290 307 316 312 282 201 158 186 158 79 75
127 111 120 82 94 125 21 98 47 42 51 57 25 7 19 21 89 128 119 125 139 153 140 139 143 143 165 197 210 217 257 289 311 321 318 291 278 268 248 213 170 143 47 96
114 104 157 180 114 108 78 119 121 127 40 41 55 15 38 111 90 80 118 149 155 142 146 136 124 125 143 174 196 239 279 302 310 288 270 252 243 245 207 182 84 47 103 111
131 129 151 188 172 127 77 86 120 130 28 38 44 8 55 133 93 108 137 152 162 161 145 128 119 126 145 157 180 213 242 255 253 239 237 213 211 206 81 85 119 112 122 139
202 197 148 134 160 129 117 131 154 110 103 59 49 33 78 106 140 181 187 190 184 173 159 154 155 172 186 194 212 253 258 260 262 278 273 225 171 147 147 139 136 144 140 126
195 180 193 207 185 151 144 207 172 136 94 73 54 65 67 167 178 161 205 212 196 183 180 185 206 228 224 221 239 261 271 263 274 263 237 218 183 170 159 144 153 142 147 146
130 126 159 119 125 150 88 75 85 111 84 108 86 97 150 218 202 185 206 206 201 205 207 212 251 275 269 255 246 287 271 254 273 248 233 208 199 180 171 193 177 166 159 163
129 165 170 117 94 73 69 64 129 117 128 124 88 109 175 220 235 232 232 235 236 225 237 261 300 333 345 322 309 283 263 242 234 252 239 227 224 203 194 166 163 171 178 172
59 96 109 127 98 89 71 65 67 98 93 104 81 111 160 255 257 260 261 253 258 275 274 286 309 349 374 348 335 300 257 240 258 245 233 227 219 194 180 178 180 172 189 175
123 107 139 137 72 114 64 85 60 72 74 122 109 128 190 227 273 276 300 311 309 307 331 336 350 388 394 351 337 297 280 255 253 251 247 211 184 169 163 154 133 142 158 167
Wind_Speed
15 15 14 13 20 18 19 26 33 32 35 40 40 39 24 27 27 29 34 40 42 37 57 64 67 69 70 69 65 62 58 56 45 33 26 15 2 5 13 14 10 3 8 12
13 13 16 18 18 26 28 34 38 34 25 39 41 39 26 26 26 27 30 35 39 40 52 60 59 60 61 61 59 55 52 38 23 11 5 5 4 14 11 13 15 4 6 6
18 19 16 18 14 23 27 30 39 40 40 39 40 39 27 23 23 25 29 32 37 40 45 52 57 58 57 57 53 48 39 26 20 6 1 10 9 13 15 19 17 8 2 5
7 7 15 13 16 31 31 25 43 42 39 30 13 34 18 22 22 25 30 34 35 40 44 48 50 52 52 50 47 44 36 19 12 12 3 4 10 16 21 19 20 13 5 5
10 8 14 17 22 9 43 21 15 42 40 40 19 34 23 19 27 29 32 38 44 43 41 43 46 47 43 40 37 31 26 19 15 14 9 8 11 18 19 18 20 32 6 4
2 11 12 15 12 12 21 18 27 31 25 13 20 18 29 19 15 34 5 32 43 45 41 38 39 37 37 35 30 23 21 17 15 14 12 13 13 17 20 21 12 9 5 4
10 9 7 14 20 11 9 19 28 23 11 12 21 16 16 19 28 35 47 20 20 41 41 38 37 34 31 27 25 22 20 20 18 14 13 15 13 17 12 11 12 10 9 9
15 13 12 12 21 12 15 3 32 26 27 22 20 18 22 25 35 44 42 39 26 4 31 44 43 34 30 26 23 20 19 19 17 13 16 16 14 11 12 12 13 13 14 12
16 12 10 5 8 15 6 7 33 36 40 44 40 24 22 26 27 44 40 34 31 17 7 26 34 33 28 25 27 23 19 15 18 14 11 11 12 14 15 16 15 14 15 15
30 29 19 8 5 9 7 7 8 16 32 33 36 40 35 25 29 31 38 37 32 29 20 8 10 23 25 24 23 22 16 14 12 11 13 14 16 18 21 19 16 15 12 12
30 35 25 13 4 7 1 7 4 15 21 37 41 41 28 27 35 35 34 37 38 32 26 18 15 7 11 14 17 18 19 15 14 15 17 20 23 22 20 18 17 13 11 9
28 41 41 23 17 11 4 11 17 14 1 21 46 50 44 39 34 28 35 35 36 36 25 19 12 7 4 10 14 17 19 20 19 20 20 23 23 21 20 18 16 13 11 11
29 44 41 37 27 21 11 6 12 9 1 12 15 55 38 28 43 35 29 32 37 36 27 22 17 13 10 10 13 16 20 22 23 22 18 17 15 17 19 19 16 11 12 25
31 41 36 47 37 25 9 15 14 19 20 18 15 14 36 43 58 42 29 32 32 34 31 23 19 16 15 15 15 17 19 20 18 15 14 15 16 20 16 14 15 12 18 22
43 60 48 46 48 45 22 9 8 14 22 26 16 13 42 65 65 41 37 36 35 36 32 27 20 16 14 11 10 11 15 14 13 12 14 15 17 15 10 16 17 19 26 33
45 56 43 43 38 36 38 24 22 12 11 13 22 29 66 70 59 33 31 37 38 37 34 29 22 17 15 10 8 8 10 12 10 10 13 13 13 14 15 18 20 21 32 32
50 54 48 56 41 42 50 26 17 15 11 12 19 31 66 68 69 24 37 39 41 42 38 31 25 19 17 13 10 9 8 8 11 11 11 11 13 14 15 19 24 25 28 38
51 53 55 61 45 64 38 34 19 21 18 13 16 32 19 67 54 39 38 38 37 34 28 24 20 16 14 11 11 9 9 10 9 10 11 13 14 15 20 23 28 33 41 44
52 46 52 56 60 59 40 30 27 24 19 19 21 23 31 38 36 36 31 27 24 23 23 22 20 18 16 15 13 13 12 12 11 12 12 13 14 18 23 31 37 40 42 45
45 50 53 48 64 70 45 31 24 31 31 46 30 29 26 21 24 24 15 16 16 18 19 19 18 18 16 14 13 12 11 11 11 12 12 13 19 25 30 35 39 41 44 47
54 53 60 57 66 57 38 31 20 31 38 38 32 35 26 16 33 16 11 12 13 15 16 17 18 18 16 14 13 13 13 12 13 14 16 19 25 32 37 38 40 43 46 49
54 55 59 58 65 70 30 27 31 37 40 38 34 35 29 25 19 12 9 9 11 12 14 16 17 18 17 15 14 14 15 14 15 17 21 27 33 36 37 40 43 46 51 56
76 59 57 50 55 43 20 38 38 45 46 41 34 32 24 18 12 7 5 6 8 10 12 14 15 16 17 16 15 16 17 17 19 23 27 32 34 37 40 43 47 52 55 59
59 49 58 60 51 47 43 43 48 44 45 47 43 30 18 14 9 7 5 5 6 8 9 10 11 13 15 16 17 18 20 22 24 28 31 34 38 40 43 45 49 53 57 61
56 44 64 67 64 57 52 49 48 41 44 41 36 26 17 14 12 9 7 6 7 8 9 9 11 13 15 17 19 21 23 24 28 31 34 38 40 44 46 47 50 53 55 60
47 50 49 57 51 57 59 51 45 38 44 39 31 30 23 15 12 12 11 8 7 6 6 8 9 11 15 18 23 27 29 29 30 35 39 41 43 45 47 49 50 47 52 58
Wind_Direction
58 86 82 84 134 143 143 161 191 195 217 221 211 221 127 125 117 100 105 115 115 102 136 149 155 155 153 156 159 166 173 179 136 123 121 109 92 299 294 300 310 54 89 101
56 126 66 52 88 147 151 186 215 205 150 232 229 218 128 128 132 126 118 119 120 124 144 153 152 152 156 158 164 166 165 144 126 109 107 310 317 294 303 303 291 348 85 69
158 46 72 97 76 143 167 182 203 208 246 199 221 205 144 125 132 137 145 142 143 143 150 158 164 165 165 169 167 166 158 147 145 133 128 305 312 310 299 289 291 307 37 31
148 104 112 111 136 162 167 147 203 226 245 265 64 293 75 124 134 154 161 161 157 157 159 164 166 170 172 173 172 174 170 159 157 158 235 235 290 295 293 290 293 293 326 355
143 93 126 143 150 66 237 355 70 254 269 275 30 284 29 78 158 171 173 178 178 172 169 171 174 176 174 173 175 173 171 170 169 175 201 243 279 293 294 297 299 280 302 322
178 23 67 83 53 87 336 354 325 305 324 66 10 18 343 74 50 309 129 178 186 183 179 179 179 177 179 178 178 178 181 187 189 191 221 254 264 280 285 290 303 266 241 265
190 172 37 94 113 54 31 325 310 324 12 56 20 55 147 11 350 324 287 357 171 190 189 186 183 182 182 182 184 185 189 192 192 210 238 248 256 277 261 264 276 247 256 274
193 186 171 132 158 121 145 23 300 321 314 332 359 18 20 5 328 311 314 308 320 229 193 193 191 188 188 189 189 190 194 194 196 222 253 263 249 231 236 262 272 251 274 283
228 244 344 91 91 132 65 131 297 300 297 295 306 339 352 357 356 311 318 314 319 335 175 188 193 194 196 196 191 193 193 208 210 211 232 244 235 242 263 274 267 269 280 295
279 273 296 334 70 347 332 351 99 316 311 311 309 310 322 351 356 349 320 326 322 323 323 309 208 197 199 203 203 206 205 211 215 236 250 268 271 271 280 282 274 278 285 294
262 274 288 298 243 163 25 146 74 337 331 312 312 313 332 335 331 326 343 330 322 322 326 328 310 273 215 224 226 229 229 246 263 279 285 290 293 292 287 288 279 279 289 294
231 267 272 284 317 304 247 183 175 174 75 326 306 304 306 312 322 338 330 326 321 310 337 343 346 333 247 227 253 255 260 264 279 296 302 307 314 318 313 304 293 303 308 310
222 257 267 278 294 303 293 208 194 191 170 208 310 303 325 311 311 320 332 331 314 311 325 333 330 318 301 275 267 267 272 277 289 299 303 312 321 329 325 317 310 321 313 309
227 255 257 269 282 298 254 229 228 211 219 227 240 263 322 305 287 305 322 329 325 315 319 332 329 316 302 293 282 278 285 290 294 299 302 314 318 330 332 345 333 335 323 324
247 254 264 271 280 287 295 279 270 220 218 218 220 239 318 279 282 305 310 318 321 317 318 322 323 321 313 303 295 288 297 299 302 309 315 322 333 345 357 344 345 333 322 316
254 257 265 270 278 286 291 296 297 237 229 229 222 227 290 274 293 312 313 314 316 320 322 324 320 314 309 303 296 297 306 302 309 318 324 333 338 342 339 339 342 334 324 323
257 255 264 267 281 286 285 284 281 291 282 248 236 230 294 288 285 304 308 311 314 317 319 317 314 309 307 302 294 295 309 319 321 334 346 350 350 348 349 345 341 337 331 327
263 259 262 265 274 271 292 302 288 283 289 265 243 237 263 294 304 313 313 313 319 326 336 343 346 344 336 336 326 328 332 339 351 355 351 353 356 354 348 346 340 333 328 327
259 262 263 262 267 279 295 299 299 301 293 304 304 245 316 313 316 316 319 324 332 342 353 2 10 13 10 359 357 353 350 354 357 356 2 5 6 356 345 336 331 331 331 331
258 261 262 268 267 271 292 297 303 310 302 310 320 327 329 326 320 327 336 342 351 357 3 9 16 17 15 14 16 14 15 18 13 16 18 11 351 342 337 335 333 334 333 333
254 259 257 264 271 282 297 304 308 298 308 318 322 322 327 320 319 341 351 357 13 14 12 14 14 11 16 29 39 39 40 29 29 17 6 354 346 340 337 336 336 335 334 334
260 260 262 266 270 273 296 297 289 301 313 317 313 317 322 320 328 339 348 1 10 15 21 10 8 9 15 31 41 37 22 21 16 3 351 344 341 339 339 338 337 336 335 333
255 261 268 272 279 290 276 296 291 298 305 309 307 314 321 319 317 326 341 0 8 9 6 10 14 21 23 23 22 15 11 7 358 351 344 341 342 342 341 338 336 334 335 334
264 264 267 273 283 286 293 289 294 298 301 307 305 309 307 300 290 290 301 321 338 351 355 7 16 12 12 11 9 7 2 356 349 344 342 341 340 339 339 339 338 336 335 334
266 266 267 271 275 285 292 291 291 292 303 306 309 306 295 284 271 264 269 280 306 326 340 352 357 353 356 1 358 355 352 350 344 342 341 339 340 339 338 340 339 338 339 338
267 271 271 277 283 280 283 294 293 292 303 302 291 292 289 275 256 257 269 275 284 299 328 335 351 357 355 350 346 345 346 345 342 338 338 339 339 339 338 337 337 341 341 340